Chicago Executive, IL

6:52 PM CDT on July 27, 2017 (GMT -0500)
Chicago Executive

Weather History for KPWK - February, 2013

Change the Weather History Date:

Monday, February 18, 2013

  Actual Average Record
Temperature  
Mean Temperature 40 °F 29 °F  
Max Temperature 52 °F 36 °F 69 °F (2017)
Min Temperature 28 °F 21 °F -8 °F (2006)
Degree Days  
Heating Degree Days 25 36  
Month to date heating degree days 712 696  
Since 1 July heating degree days 4132 4393  
Cooling Degree Days 0 0  
Month to date cooling degree days 0 0  
Year to date cooling degree days 0 0  
Moisture  
Dew Point 33 °F    
Average Humidity 73    
Maximum Humidity 93    
Minimum Humidity 53    
Precipitation  
Precipitation 0.15 in 0.04 in 0.15 in (2013)
Month to date precipitation 1.13 0.60  
Year to date precipitation 4.53 2.23  
Sea Level Pressure  
Sea Level Pressure 29.62 in    
Wind  
Wind Speed 16 mph (SSW)    
Max Wind Speed 26 mph    
Max Gust Speed 35 mph    
Visibility 8 miles    
Events Rain , Snow    
T = Trace of Precipitation, MM = Missing Value Source: NWS Daily Summary

Daily Weather History Graph

Daily Weather History Graph

Search for Another Location

Airport or City:

Trip Planner

Search our weather history database for the weather conditions in past years. The results will help you decide how hot, cold, wet, or windy it might be!

Date:

Astronomy

Feb. 18, 2013 Rise Set
Actual Time 6:43 AM CST 5:28 PM CST
Civil Twilight 6:14 AM CST 5:57 PM CST
Nautical Twilight 5:41 AM CST 6:29 PM CST
Astronomical Twilight 5:09 AM CST 7:02 PM CST
Moon 11:11 AM CST (2/18) 1:25 AM CST (2/18)
Length of Visible Light 11h 42m
Length of Day
10h 45m
First Quarter, 58% of the Moon is Illuminated
Feb 18
First Quarter
Feb 25
Full
Mar 4
Last Quarter
Mar 11
New
Mar 19
First Quarter

Hourly Weather History & Observations

Time (CST) Temp. Windchill Dew Point Humidity Pressure Visibility Wind Dir Wind Speed Gust Speed Precip Events Conditions
12:52 AM 28.0 °F 18.6 °F 14.0 °F 56% 30.01 in 10.0 mi SSE 10.4 mph - N/A   Clear
1:52 AM 28.9 °F 18.6 °F 15.1 °F 56% 29.98 in 10.0 mi SSE 12.7 mph - N/A   Clear
2:52 AM 30.0 °F 19.5 °F 16.0 °F 56% 29.94 in 10.0 mi SSE 13.8 mph - N/A   Clear
3:52 AM 30.9 °F 21.7 °F 16.0 °F 54% 29.89 in 10.0 mi SSE 11.5 mph - N/A   Clear
4:52 AM 30.9 °F 21.7 °F 17.1 °F 57% 29.86 in 10.0 mi South 11.5 mph - N/A   Clear
5:52 AM 32.0 °F 22.1 °F 18.0 °F 56% 29.84 in 10.0 mi South 13.8 mph - N/A   Clear
6:52 AM 32.0 °F 21.6 °F 19.0 °F 59% 29.82 in 10.0 mi South 15.0 mph 21.9 mph N/A   Clear
8:52 AM 39.0 °F 29.9 °F 25.0 °F 57% 29.77 in 10.0 mi South 17.3 mph 27.6 mph N/A   Clear
9:52 AM 44.1 °F 35.9 °F 28.9 °F 55% 29.75 in 10.0 mi South 19.6 mph 25.3 mph N/A   Clear
10:52 AM 46.9 °F - 32.0 °F 56% 29.73 in 10.0 mi South 18.4 mph 25.3 mph N/A   Clear
11:52 AM 52.0 °F - 35.1 °F 53% 29.69 in 10.0 mi South 17.3 mph - N/A   Clear
12:52 PM 52.0 °F - 37.0 °F 57% 29.65 in 10.0 mi SSW 18.4 mph 28.8 mph N/A   Mostly Cloudy
1:52 PM 51.1 °F - 37.9 °F 61% 29.63 in 10.0 mi South 18.4 mph 23.0 mph N/A   Overcast
2:31 PM 51.8 °F - 39.2 °F 62% 29.60 in 10.0 mi South 19.6 mph - N/A   Overcast
2:52 PM 51.1 °F - 41.0 °F 68% 29.61 in 10.0 mi South 13.8 mph 23.0 mph N/A   Overcast
3:52 PM 50.0 °F - 42.1 °F 74% 29.57 in 10.0 mi South 10.4 mph - N/A   Overcast
4:52 PM 48.9 °F - 44.1 °F 83% 29.54 in 9.0 mi South 13.8 mph - 0.01 in Rain Light Rain
5:52 PM 48.0 °F - 44.1 °F 86% 29.52 in 8.0 mi South 18.4 mph 25.3 mph 0.00 in   Overcast
6:59 PM 48.2 °F - 44.6 °F 87% 29.47 in 7.0 mi South 24.2 mph 33.4 mph 0.00 in Rain Light Rain
7:52 PM 46.9 °F - 44.1 °F 90% 29.46 in 4.0 mi South 18.4 mph 27.6 mph 0.05 in Rain Rain
8:03 PM 46.4 °F 38.5 °F 44.6 °F 93% 29.43 in 4.0 mi South 21.9 mph 28.8 mph 0.03 in Rain Light Rain
8:36 PM 46.4 °F 39.8 °F 42.8 °F 87% 29.42 in 5.0 mi South 16.1 mph 29.9 mph 0.04 in Rain Light Rain
8:52 PM 46.0 °F 40.2 °F 43.0 °F 89% 29.43 in 5.0 mi West 12.7 mph 25.3 mph 0.07 in Rain Light Rain
8:56 PM 44.6 °F 38.4 °F 42.8 °F 93% 29.42 in 6.0 mi West 12.7 mph - 0.00 in Rain Light Rain
9:09 PM 42.8 °F 35.8 °F 39.2 °F 87% 29.42 in 8.0 mi WNW 13.8 mph - 0.01 in Rain Light Rain
9:22 PM 41.0 °F 34.7 °F 37.4 °F 87% 29.43 in 8.0 mi WNW 10.4 mph - 0.01 in Rain Light Rain
9:32 PM 39.2 °F 30.2 °F 37.4 °F 93% 29.44 in 7.0 mi West 17.3 mph - 0.01 in   Overcast
9:41 PM 39.2 °F 30.5 °F 37.4 °F 93% 29.44 in 8.0 mi West 16.1 mph 19.6 mph 0.01 in   Overcast
9:52 PM 39.0 °F 29.9 °F 36.0 °F 89% 29.46 in 6.0 mi West 17.3 mph 26.5 mph 0.01 in   Overcast
10:52 PM 35.1 °F 25.5 °F 32.0 °F 89% 29.50 in 9.0 mi West 15.0 mph 23.0 mph 0.00 in   Overcast
11:52 PM 30.9 °F 18.1 °F 27.0 °F 85% 29.55 in 3.0 mi West 21.9 mph 29.9 mph 0.00 in Snow Light Snow